Location: Unspecified
(0.0000°N, 0.0000°E)
Time: 02:48:06
(UTC+00:00)

AO-109 - Pass Details

Date: 29 October 2021
Orbit: 473 x 523 km, 60.7° (Epoch: 27 November)

Event Time Altitude Azimuth Distance (km) Brightness Sun altitude
Rises 19:19:09 0° 330° (NNW) 2,525 ? -23.1°
Reaches altitude 10° 19:21:17 10° 328° (NNW) 1,656 ? -23.7°
Enters shadow 19:23:33 35° 319° (NW) 797 ? -24.2°
